Date String (YYYY-MM-DD hh:mm:ss) UTC,Instrument flags,Ambient pressure (hPa),Sample flow (lpm),Bypass flow (lpm),Sample temperature (°C),Ambient temperature (°C),ASC tube jacket temperature (°C),LED temperature (°C),Box temperature (°C),Sample RH (%),Span deviation,Mass concentration (μg/m³),Mass concentration (μg/m³),Mass concentration (μg/m³)
DateTimeUTC,F1_M11,P_M11,Q1_M11,Q2_M11,T1_M11,T2_M11,T3_M11,T4_M11,T5_M11,U1_M11,ZSPAN_M11,X0_M11,X2_M11,X1_M11
2022-07-21 20:00:00,,0827.7,5.00,0.00,29.2,27.9,00.0,37.9,31.2,16.7,0000.0,0014.64,0005.92,0004.61
2022-07-21 20:01:00,,0827.8,5.01,0.00,29.2,27.7,00.0,37.8,31.2,17.0,0000.0,0014.15,0005.91,0004.59
2022-07-21 20:02:00,,0827.7,4.99,0.00,29.2,27.0,00.0,37.8,31.1,17.0,0000.0,0014.35,0005.91,0004.58
2022-07-21 20:03:00,,0827.7,5.01,0.00,29.2,26.8,00.0,37.7,31.0,17.2,0000.0,0014.75,0005.86,0004.55
2022-07-21 20:04:00,,0827.7,4.99,0.00,29.1,26.9,00.0,37.8,31.0,17.3,0000.0,0014.39,0005.81,0004.56
2022-07-21 20:05:00,,0827.7,5.00,0.00,29.1,27.1,00.0,37.8,31.0,19.2,0000.0,0014.12,0005.79,0004.57
2022-07-21 20:06:00,,0827.7,5.01,0.00,29.1,27.3,00.0,37.8,31.0,18.4,0000.0,0014.72,0005.82,0004.59
2022-07-21 20:07:00,,0827.7,4.99,0.00,29.1,27.5,00.0,37.8,31.0,21.4,0000.0,0015.58,0005.87,0004.63
2022-07-21 20:08:00,,0827.7,5.01,0.00,29.2,27.8,00.0,37.8,31.1,25.9,0000.0,0016.74,0005.98,0004.66
2022-07-21 20:09:00,,0827.7,4.99,0.00,29.2,28.0,00.0,37.9,31.2,27.7,0000.0,0018.02,0006.13,0004.72
2022-07-21 20:10:00,,0827.7,5.00,0.00,29.2,27.8,00.0,37.8,31.2,27.2,0000.0,0018.75,0006.31,0004.78
2022-07-21 20:11:00,,0827.7,5.00,0.00,29.2,27.1,00.0,37.8,31.1,25.0,0000.0,0019.99,0006.37,0004.81
2022-07-21 20:12:00,,0827.6,4.99,0.00,29.2,26.8,00.0,37.7,31.0,24.4,0000.0,0020.92,0006.63,0004.86
2022-07-21 20:13:00,,0827.6,5.01,0.00,29.1,26.8,00.0,37.8,30.9,23.1,0000.0,0021.25,0006.83,0004.91
2022-07-21 20:14:00,,0827.5,5.00,0.00,29.1,27.0,00.0,37.8,30.9,23.9,0000.0,0020.90,0006.93,0004.95
2022-07-21 20:15:00,,0827.5,5.00,0.00,29.1,27.2,00.0,37.8,30.9,24.7,0000.0,0021.90,0007.04,0004.97
2022-07-21 20:16:00,,0827.5,5.01,0.00,29.1,27.4,00.0,37.8,31.0,24.8,0000.0,0022.64,0007.14,0005.00
2022-07-21 20:17:00,,0827.6,5.00,0.00,29.1,27.6,00.0,37.8,31.1,23.1,0000.0,0022.83,0007.22,0005.02
2022-07-21 20:18:00,,0827.5,4.99,0.00,29.1,27.8,00.0,37.8,31.1,20.7,0000.0,0022.67,0007.17,0005.01
2022-07-21 20:19:00,,0827.6,5.01,0.00,29.2,28.0,00.0,37.9,31.2,23.7,0000.0,0021.99,0007.09,0005.01
2022-07-21 20:20:00,,0827.5,4.99,0.00,29.2,27.5,00.0,37.8,31.2,20.5,0000.0,0020.30,0006.92,0004.95
2022-07-21 20:21:00,,0827.5,5.00,0.00,29.2,26.9,00.0,37.7,31.0,20.2,0000.0,0019.68,0006.76,0004.88
2022-07-21 20:22:00,,0827.5,4.99,0.00,29.1,26.8,00.0,37.7,31.0,19.5,0000.0,0017.99,0006.68,0004.82
2022-07-21 20:23:00,,0827.4,5.01,0.00,29.1,26.8,00.0,37.7,30.9,18.6,0000.0,0016.73,0006.43,0004.75
2022-07-21 20:24:00,,0827.4,5.00,0.00,29.0,27.0,00.0,37.7,30.9,18.7,0000.0,0015.65,0006.12,0004.68
2022-07-21 20:25:00,,0827.4,4.99,0.00,29.0,27.2,00.0,37.8,30.9,18.4,0000.0,0015.77,0005.97,0004.60
2022-07-21 20:26:00,,0827.4,5.00,0.00,29.1,27.4,00.0,37.8,31.0,18.9,0000.0,0014.83,0005.81,0004.54
2022-07-21 20:27:00,,0827.3,4.99,0.00,29.1,27.6,00.0,37.8,31.1,18.9,0000.0,0014.20,0005.68,0004.44
2022-07-21 20:28:00,,0827.3,5.01,0.00,29.1,27.8,00.0,37.8,31.1,19.9,0000.0,0013.53,0005.54,0004.33
2022-07-21 20:29:00,,0827.3,5.00,0.00,29.2,28.0,00.0,37.8,31.2,21.6,0000.0,0012.87,0005.51,0004.27
2022-07-21 20:30:00,,0827.4,5.00,0.00,29.2,27.6,00.0,37.8,31.2,19.4,0000.0,0011.81,0005.39,0004.19
2022-07-21 20:31:00,,0827.4,5.00,0.00,29.2,26.9,00.0,37.7,31.0,21.1,0000.0,0011.40,0005.29,0004.12
2022-07-21 20:32:00,,0827.5,5.01,0.00,29.1,26.7,00.0,37.7,30.9,26.9,0000.0,0011.92,0005.19,0004.07
2022-07-21 20:33:00,,0827.4,5.01,0.00,29.1,26.8,00.0,37.7,30.9,33.2,0000.0,0013.25,0005.23,0004.09
2022-07-21 20:34:00,,0827.5,5.00,0.00,29.1,27.0,00.0,37.7,30.9,23.1,0000.0,0013.30,0005.24,0004.09
2022-07-21 20:35:00,,0827.5,5.00,0.00,29.2,27.2,00.0,37.7,31.0,24.1,0000.0,0013.28,0005.31,0004.09
2022-07-21 20:36:00,,0827.5,5.00,0.00,29.2,27.4,00.0,37.8,31.0,23.5,0000.0,0013.11,0005.36,0004.10
2022-07-21 20:37:00,,0827.5,5.00,0.00,29.2,27.6,00.0,37.8,31.1,24.9,0000.0,0013.26,0005.41,0004.14
2022-07-21 20:38:00,,0827.5,4.99,0.00,29.3,27.8,00.0,37.8,31.1,23.4,0000.0,0012.87,0005.40,0004.17
2022-07-21 20:39:00,,0827.5,5.01,0.00,29.3,28.0,00.0,37.9,31.2,24.5,0000.0,0012.47,0005.38,0004.23
2022-07-21 20:40:00,,0827.5,5.00,0.00,29.4,28.0,00.0,37.9,31.3,21.7,0000.0,0012.37,0005.39,0004.28
2022-07-21 20:41:00,,0827.5,5.00,0.00,29.4,27.4,00.0,37.8,31.2,19.3,0000.0,0013.11,0005.55,0004.34
2022-07-21 20:42:00,,0827.5,5.01,0.00,29.3,26.9,00.0,37.8,31.1,18.5,0000.0,0013.49,0005.68,0004.40
2022-07-21 20:43:00,,0827.5,5.00,0.00,29.3,26.8,00.0,37.8,31.0,18.1,0000.0,0013.32,0005.73,0004.45
2022-07-21 20:44:00,,0827.5,5.00,0.00,29.2,26.9,00.0,37.8,30.9,21.8,0000.0,0011.47,0005.67,0004.45
2022-07-21 20:45:00,,0827.5,5.00,0.00,29.2,27.1,00.0,37.8,31.0,25.8,0000.0,0011.41,0005.72,0004.47
2022-07-21 20:46:00,,0827.5,5.01,0.00,29.2,27.3,00.0,37.9,31.0,24.4,0000.0,0011.64,0005.78,0004.53
2022-07-21 20:47:00,,0827.5,5.00,0.00,29.2,27.5,00.0,37.9,31.1,24.8,0000.0,0011.61,0005.77,0004.57
2022-07-21 20:48:00,,0827.5,5.00,0.00,29.3,27.8,00.0,37.9,31.1,23.6,0000.0,0011.51,0005.81,0004.60
2022-07-21 20:49:00,,0827.6,4.99,0.00,29.3,27.9,00.0,37.9,31.2,22.8,0000.0,0011.80,0005.92,0004.64
2022-07-21 20:50:00,,0827.6,5.01,0.00,29.3,28.1,00.0,37.9,31.3,25.0,0000.0,0011.94,0005.98,0004.65
2022-07-21 20:51:00,,0827.5,4.99,0.00,29.3,27.6,00.0,37.9,31.2,23.6,0000.0,0012.16,0006.02,0004.67
2022-07-21 20:52:00,,0827.4,5.01,0.00,29.3,27.1,00.0,37.8,31.1,21.4,0000.0,0011.88,0006.00,0004.68
2022-07-21 20:53:00,,0827.4,5.00,0.00,29.3,27.0,00.0,37.8,31.1,21.9,0000.0,0011.70,0005.98,0004.70
2022-07-21 20:54:00,,0827.5,5.00,0.00,29.2,27.1,00.0,37.8,31.0,22.0,0000.0,0011.97,0006.05,0004.72
2022-07-21 20:55:00,,0827.4,5.01,0.00,29.2,27.2,00.0,37.9,31.0,20.0,0000.0,0012.21,0006.02,0004.74
2022-07-21 20:56:00,,0827.4,5.00,0.00,29.2,27.4,00.0,37.9,31.1,20.9,0000.0,0012.20,0006.00,0004.74
2022-07-21 20:57:00,,0827.4,5.00,0.00,29.2,27.6,00.0,37.9,31.1,20.1,0000.0,0011.90,0005.96,0004.72
2022-07-21 20:58:00,,0827.4,5.00,0.00,29.3,27.9,00.0,37.9,31.2,18.5,0000.0,0011.63,0005.97,0004.73
2022-07-21 20:59:00,,0827.4,4.99,0.00,29.3,28.0,00.0,37.9,31.3,21.6,0000.0,0011.74,0005.99,0004.73
